| time (UTC) | temp C | wind direction | speed KPH | gust KPH | rain 1hr cm | rain 24hr cm | rain mn cm | humidity % | barometer mb |
| 20260507090418 | 5 | 280 | 4.8 | 6.4 | 0.00 | 0.00 | 0.00 | 78 | 1012.9 |
| 20260507085915 | 5 | 271 | 3.2 | 4.8 | 0.00 | 0.00 | 0.00 | 77 | 1012.7 |
| 20260507085412 | 5 | 272 | 3.2 | 4.8 | 0.00 | 0.00 | 0.00 | 75 | 1012.8 |
| 20260507084909 | 5 | 283 | 6.4 | 9.7 | 0.00 | 0.00 | 0.00 | 75 | 1012.7 |
| 20260507084406 | 5 | 280 | 4.8 | 6.4 | 0.00 | 0.00 | 0.00 | 75 | 1012.9 |
| 20260507083903 | 5 | 279 | 6.4 | 6.4 | 0.00 | 0.00 | 0.00 | 74 | 1012.5 |
| 20260507083359 | 5 | 279 | 6.4 | 6.4 | 0.00 | 0.00 | 0.00 | 74 | 1012.7 |
| 20260507082855 | 5 | 282 | 4.8 | 6.4 | 0.00 | 0.00 | 0.00 | 75 | 1012.8 |
| 20260507082351 | 5 | 282 | 4.8 | 6.4 | 0.00 | 0.00 | 0.00 | 75 | 1012.8 |
| 20260507081849 | 6 | 274 | 4.8 | 4.8 | 0.00 | 0.00 | 0.00 | 75 | 1012.7 |
| 20260507081344 | 6 | 275 | 4.8 | 6.4 | 0.00 | 0.00 | 0.00 | 74 | 1012.8 |
| 20260507080842 | 6 | 282 | 6.4 | 6.4 | 0.00 | 0.00 | 0.00 | 74 | 1012.8 |
| 20260507080338 | 6 | 290 | 4.8 | 6.4 | 0.00 | 0.00 | 0.00 | 75 | 1012.9 |
| 20260507075833 | 6 | 279 | 4.8 | 6.4 | 0.00 | 0.00 | 0.00 | 75 | 1012.6 |
| 20260507075329 | 5 | 290 | 4.8 | 6.4 | 0.00 | 0.00 | 0.00 | 76 | 1012.8 |
| 20260507074826 | 5 | 281 | 3.2 | 4.8 | 0.00 | 0.00 | 0.00 | 76 | 1012.7 |
| 20260507074324 | 5 | 274 | 3.2 | 4.8 | 0.00 | 0.00 | 0.00 | 77 | 1012.8 |
| 20260507073821 | 6 | 271 | 3.2 | 4.8 | 0.00 | 0.00 | 0.00 | 77 | 1012.9 |
| 20260507073317 | 6 | 267 | 3.2 | 4.8 | 0.00 | 0.00 | 0.00 | 75 | 1012.7 |
| 20260507072815 | 6 | 268 | 3.2 | 4.8 | 0.00 | 0.00 | 0.00 | 75 | 1012.8 |
| 20260507072312 | 6 | 271 | 3.2 | 4.8 | 0.00 | 0.00 | 0.00 | 76 | 1012.8 |
| 20260507071809 | 6 | 279 | 4.8 | 4.8 | 0.00 | 0.00 | 0.00 | 77 | 1012.7 |
| 20260507071306 | 6 | 262 | 3.2 | 3.2 | 0.00 | 0.00 | 0.00 | 77 | 1012.7 |
| 20260507070802 | 5 | 269 | 3.2 | 4.8 | 0.00 | 0.00 | 0.00 | 78 | 1013.0 |
| 20260507070300 | 6 | 258 | 3.2 | 4.8 | 0.00 | 0.00 | 0.00 | 78 | 1012.9 |
| 20260507065756 | 6 | 263 | 4.8 | 4.8 | 0.00 | 0.00 | 0.00 | 78 | 1012.9 |
| 20260507065253 | 6 | 253 | 3.2 | 3.2 | 0.00 | 0.00 | 0.00 | 77 | 1012.8 |
| 20260507064750 | 6 | 258 | 3.2 | 3.2 | 0.00 | 0.00 | 0.00 | 76 | 1012.8 |
| 20260507064249 | 6 | 270 | 4.8 | 6.4 | 0.00 | 0.00 | 0.00 | 75 | 1012.8 |
| 20260507063746 | 6 | 251 | 4.8 | 4.8 | 0.00 | 0.00 | 0.00 | 75 | 1012.7 |
| 20260507063243 | 6 | 266 | 6.4 | 6.4 | 0.00 | 0.00 | 0.00 | 75 | 1012.9 |
| 20260507062739 | 6 | 271 | 4.8 | 9.7 | 0.00 | 0.00 | 0.00 | 76 | 1013.1 |
| 20260507062237 | 6 | 272 | 4.8 | 6.4 | 0.00 | 0.00 | 0.00 | 77 | 1013.1 |
| 20260507061735 | 6 | 275 | 4.8 | 4.8 | 0.00 | 0.00 | 0.00 | 78 | 1013.1 |
| 20260507061232 | 6 | 266 | 3.2 | 4.8 | 0.00 | 0.00 | 0.00 | 78 | 1013.0 |
| 20260507060731 | 6 | 261 | 3.2 | 4.8 | 0.00 | 0.00 | 0.00 | 78 | 1012.9 |
| 20260507060227 | 6 | 241 | 4.8 | 4.8 | 0.00 | 0.00 | 0.00 | 79 | 1012.8 |
| 20260507055723 | 6 | 257 | 3.2 | 4.8 | 0.00 | 0.00 | 0.00 | 79 | 1012.8 |
| 20260507055218 | 6 | 255 | 3.2 | 4.8 | 0.00 | 0.00 | 0.00 | 79 | 1013.0 |
| 20260507054715 | 6 | 257 | 3.2 | 4.8 | 0.00 | 0.00 | 0.00 | 79 | 1013.0 |
| 20260507054212 | 6 | 247 | 3.2 | 4.8 | 0.00 | 0.00 | 0.00 | 78 | 1012.9 |
| 20260507053710 | 6 | 246 | 4.8 | 4.8 | 0.00 | 0.00 | 0.00 | 78 | 1012.8 |
| 20260507053207 | 6 | 265 | 4.8 | 4.8 | 0.00 | 0.00 | 0.00 | 79 | 1012.9 |
| 20260507052706 | 6 | 267 | 3.2 | 4.8 | 0.00 | 0.00 | 0.00 | 79 | 1012.8 |
| 20260507052201 | 6 | 252 | 3.2 | 3.2 | 0.00 | 0.00 | 0.00 | 79 | 1013.0 |
| 20260507051659 | 6 | 248 | 3.2 | 3.2 | 0.00 | 0.00 | 0.00 | 79 | 1012.9 |
| 20260507051156 | 6 | 249 | 1.6 | 3.2 | 0.00 | 0.00 | 0.00 | 79 | 1012.8 |
| 20260507050653 | 7 | 249 | 1.6 | 1.6 | 0.00 | 0.00 | 0.00 | 78 | 1012.8 |
| 20260507050150 | 7 | 251 | 3.2 | 3.2 | 0.00 | 0.00 | 0.00 | 79 | 1013.0 |
| 20260507045646 | 7 | 252 | 1.6 | 4.8 | 0.00 | 0.00 | 0.00 | 79 | 1012.8 |
| 20260507045143 | 7 | 266 | 3.2 | 3.2 | 0.00 | 0.00 | 0.00 | 79 | 1012.9 |
| 20260507044640 | 7 | 263 | 1.6 | 4.8 | 0.00 | 0.00 | 0.00 | 78 | 1012.7 |
| 20260507044137 | 7 | 252 | 3.2 | 4.8 | 0.00 | 0.00 | 0.00 | 78 | 1012.7 |
| 20260507043633 | 7 | 252 | 3.2 | 4.8 | 0.00 | 0.00 | 0.00 | 77 | 1012.7 |
| 20260507043130 | 7 | 256 | 3.2 | 4.8 | 0.00 | 0.00 | 0.00 | 77 | 1012.5 |
| 20260507042626 | 7 | 244 | 4.8 | 4.8 | 0.00 | 0.00 | 0.00 | 77 | 1012.8 |
| 20260507042121 | 7 | 241 | 3.2 | 4.8 | 0.00 | 0.00 | 0.00 | 77 | 1012.9 |
| 20260507041618 | 7 | 246 | 4.8 | 4.8 | 0.00 | 0.00 | 0.00 | 77 | 1012.8 |
| 20260507041115 | 7 | 237 | 3.2 | 3.2 | 0.00 | 0.00 | 0.00 | 77 | 1013.0 |
| 20260507040612 | 7 | 251 | 3.2 | 4.8 | 0.00 | 0.00 | 0.00 | 77 | 1012.9 |
| 20260507040109 | 7 | 256 | 4.8 | 4.8 | 0.00 | 0.00 | 0.00 | 76 | 1013.0 |
| 20260507035604 | 8 | 250 | 4.8 | 4.8 | 0.00 | 0.30 | 0.30 | 76 | 1012.6 |
| 20260507035101 | 8 | 243 | 4.8 | 4.8 | 0.00 | 0.30 | 0.30 | 76 | 1012.7 |
| 20260507034558 | 8 | 238 | 3.2 | 4.8 | 0.00 | 0.30 | 0.30 | 76 | 1012.9 |
| 20260507034056 | 8 | 226 | 4.8 | 6.4 | 0.00 | 0.30 | 0.30 | 76 | 1012.7 |
| 20260507033554 | 8 | 212 | 4.8 | 4.8 | 0.00 | 0.30 | 0.30 | 76 | 1013.0 |
| 20260507033050 | 8 | 219 | 3.2 | 4.8 | 0.00 | 0.30 | 0.30 | 77 | 1012.6 |
| 20260507032547 | 7 | 219 | 3.2 | 4.8 | 0.00 | 0.30 | 0.30 | 78 | 1012.8 |
| 20260507032044 | 7 | 218 | 3.2 | 3.2 | 0.00 | 0.30 | 0.30 | 79 | 1012.9 |
| 20260507031540 | 7 | 208 | 3.2 | 4.8 | 0.00 | 0.30 | 0.30 | 79 | 1012.9 |
| 20260507031037 | 7 | 208 | 4.8 | 4.8 | 0.00 | 0.30 | 0.30 | 79 | 1013.0 |
| 20260507030533 | 7 | 204 | 4.8 | 4.8 | 0.00 | 0.30 | 0.30 | 80 | 1012.9 |
| 20260507030032 | 7 | 206 | 3.2 | 4.8 | 0.00 | 0.30 | 0.30 | 80 | 1012.8 |
| 20260507025529 | 7 | 203 | 3.2 | 4.8 | 0.00 | 0.30 | 0.30 | 79 | 1013.0 |
| 20260507025026 | 8 | 195 | 4.8 | 6.4 | 0.00 | 0.30 | 0.30 | 79 | 1013.1 |
| 20260507024524 | 8 | 201 | 6.4 | 6.4 | 0.00 | 0.30 | 0.30 | 78 | 1013.1 |
| 20260507024020 | 7 | 214 | 4.8 | 4.8 | 0.00 | 0.30 | 0.30 | 79 | 1013.0 |
| 20260507023516 | 7 | 205 | 3.2 | 4.8 | 0.00 | 0.30 | 0.30 | 82 | 1013.1 |
| 20260507023014 | 7 | 181 | 0.0 | 3.2 | 0.00 | 0.30 | 0.30 | 81 | 1013.1 |
| 20260507022510 | 7 | 191 | 4.8 | 6.4 | 0.00 | 0.30 | 0.30 | 81 | 1013.2 |
| 20260507022006 | 7 | 189 | 4.8 | 4.8 | 0.00 | 0.30 | 0.30 | 82 | 1013.0 |
| 20260507021502 | 7 | 190 | 4.8 | 4.8 | 0.00 | 0.30 | 0.30 | 84 | 1013.1 |
| 20260507020959 | 7 | 197 | 1.6 | 3.2 | 0.00 | 0.30 | 0.30 | 83 | 1013.0 |
| 20260507020456 | 7 | 200 | 1.6 | 3.2 | 0.00 | 0.30 | 0.30 | 82 | 1012.9 |
| 20260507015953 | 7 | 204 | 3.2 | 3.2 | 0.00 | 0.30 | 0.30 | 82 | 1012.9 |
| 20260507015451 | 7 | 149 | 1.6 | 3.2 | 0.00 | 0.30 | 0.30 | 81 | 1012.7 |
| 20260507014948 | 7 | 149 | 1.6 | 1.6 | 0.00 | 0.30 | 0.30 | 81 | 1012.8 |
| 20260507014445 | 7 | 149 | 0.0 | 1.6 | 0.00 | 0.30 | 0.30 | 80 | 1012.7 |
| 20260507013940 | 7 | 149 | 1.6 | 1.6 | 0.00 | 0.30 | 0.30 | 80 | 1012.9 |
| 20260507013437 | 7 | 149 | 0.0 | 1.6 | 0.00 | 0.30 | 0.30 | 80 | 1012.8 |
| 20260507012935 | 7 | 149 | 1.6 | 1.6 | 0.00 | 0.30 | 0.30 | 81 | 1012.5 |
| 20260507012431 | 8 | 148 | 1.6 | 1.6 | 0.00 | 0.30 | 0.30 | 78 | 1012.6 |
| 20260507011928 | 8 | 154 | 1.6 | 1.6 | 0.00 | 0.30 | 0.30 | 75 | 1012.5 |
| 20260507011426 | 8 | 156 | 1.6 | 1.6 | 0.00 | 0.30 | 0.30 | 74 | 1012.4 |
| 20260507010925 | 8 | 150 | 1.6 | 1.6 | 0.00 | 0.30 | 0.30 | 74 | 1012.7 |
| 20260507010421 | 8 | 169 | 1.6 | 1.6 | 0.00 | 0.30 | 0.30 | 72 | 1012.4 |
| 20260507005918 | 9 | 177 | 1.6 | 1.6 | 0.00 | 0.30 | 0.30 | 71 | 1012.3 |
| 20260507005415 | 9 | 259 | 0.0 | 0.0 | 0.00 | 0.30 | 0.30 | 69 | 1012.2 |
| 20260507004911 | 10 | 260 | 0.0 | 0.0 | 0.00 | 0.30 | 0.30 | 66 | 1012.4 |
| 20260507004408 | 10 | 261 | 0.0 | 0.0 | 0.00 | 0.30 | 0.30 | 62 | 1012.3 |
| 20260507003906 | 10 | 261 | 0.0 | 0.0 | 0.00 | 0.30 | 0.30 | 61 | 1012.2 |
| 20260507003401 | 11 | 261 | 0.0 | 0.0 | 0.00 | 0.30 | 0.30 | 61 | 1012.3 |
| 20260507002856 | 11 | 261 | 1.6 | 1.6 | 0.00 | 0.30 | 0.30 | 61 | 1012.3 |
| 20260507002352 | 11 | 268 | 1.6 | 1.6 | 0.00 | 0.30 | 0.30 | 60 | 1012.2 |
| 20260507001850 | 11 | 277 | 1.6 | 3.2 | 0.00 | 0.30 | 0.30 | 59 | 1012.0 |
| 20260507001347 | 11 | 278 | 3.2 | 3.2 | 0.00 | 0.30 | 0.30 | 59 | 1012.0 |
| 20260507000843 | 11 | 287 | 3.2 | 3.2 | 0.00 | 0.30 | 0.30 | 58 | 1012.2 |
| 20260507000339 | 12 | 286 | 4.8 | 6.4 | 0.00 | 0.30 | 0.30 | 57 | 1012.0 |
| 20260506235835 | 11 | 293 | 3.2 | 3.2 | 0.00 | 0.30 | 0.30 | 56 | 1012.2 |
| 20260506235332 | 11 | 280 | 3.2 | 4.8 | 0.00 | 0.30 | 0.30 | 58 | 1012.2 |
| 20260506234828 | 11 | 281 | 4.8 | 6.4 | 0.00 | 0.30 | 0.30 | 56 | 1012.2 |
| 20260506234326 | 11 | 320 | 6.4 | 9.7 | 0.00 | 0.30 | 0.30 | 57 | 1012.2 |
| 20260506233824 | 11 | 305 | 8.0 | 9.7 | 0.00 | 0.30 | 0.30 | 55 | 1012.1 |
| 20260506233319 | 12 | 248 | 6.4 | 6.4 | 0.00 | 0.30 | 0.30 | 54 | 1012.0 |
| 20260506232817 | 12 | 299 | 8.0 | 9.7 | 0.00 | 0.30 | 0.30 | 52 | 1012.2 |
| 20260506232312 | 12 | 307 | 6.4 | 9.7 | 0.00 | 0.30 | 0.30 | 53 | 1012.3 |
| 20260506231808 | 12 | 307 | 8.0 | 11.3 | 0.00 | 0.30 | 0.30 | 53 | 1012.2 |
| 20260506231307 | 12 | 303 | 8.0 | 9.7 | 0.00 | 0.30 | 0.30 | 54 | 1012.2 |
| 20260506230804 | 11 | 307 | 6.4 | 11.3 | 0.00 | 0.30 | 0.30 | 54 | 1012.3 |
| 20260506230300 | 11 | 295 | 6.4 | 9.7 | 0.00 | 0.30 | 0.30 | 56 | 1012.2 |
| 20260506225757 | 11 | 292 | 6.4 | 9.7 | 0.00 | 0.30 | 0.30 | 57 | 1012.2 |
| 20260506225254 | 11 | 293 | 9.7 | 11.3 | 0.00 | 0.30 | 0.30 | 54 | 1012.6 |
| 20260506224750 | 11 | 290 | 6.4 | 11.3 | 0.00 | 0.30 | 0.30 | 57 | 1012.4 |
| 20260506224248 | 11 | 301 | 9.7 | 12.9 | 0.00 | 0.30 | 0.30 | 55 | 1012.5 |
| 20260506223744 | 11 | 297 | 11.3 | 12.9 | 0.00 | 0.30 | 0.30 | 55 | 1012.6 |
| 20260506223239 | 11 | 323 | 9.7 | 12.9 | 0.00 | 0.30 | 0.30 | 56 | 1012.5 |
| 20260506222737 | 11 | 314 | 6.4 | 11.3 | 0.00 | 0.30 | 0.30 | 56 | 1012.5 |
| 20260506222232 | 11 | 309 | 9.7 | 14.5 | 0.00 | 0.30 | 0.30 | 54 | 1012.7 |
| 20260506221731 | 11 | 299 | 8.0 | 11.3 | 0.00 | 0.30 | 0.30 | 57 | 1012.6 |
| 20260506221228 | 11 | 312 | 8.0 | 11.3 | 0.00 | 0.30 | 0.30 | 57 | 1012.3 |
| 20260506220725 | 11 | 283 | 9.7 | 16.1 | 0.00 | 0.30 | 0.30 | 56 | 1012.5 |
| 20260506220220 | 11 | 276 | 12.9 | 14.5 | 0.00 | 0.30 | 0.30 | 56 | 1012.2 |
| 20260506215717 | 11 | 307 | 9.7 | 12.9 | 0.00 | 0.30 | 0.30 | 54 | 1012.2 |
| 20260506215212 | 11 | 302 | 11.3 | 12.9 | 0.00 | 0.30 | 0.30 | 53 | 1012.4 |
| 20260506214709 | 11 | 291 | 11.3 | 14.5 | 0.00 | 0.30 | 0.30 | 53 | 1012.4 |
| 20260506214207 | 11 | 283 | 9.7 | 11.3 | 0.00 | 0.30 | 0.30 | 54 | 1012.4 |
| 20260506213705 | 11 | 301 | 9.7 | 14.5 | 0.00 | 0.30 | 0.30 | 57 | 1012.4 |
| 20260506213202 | 11 | 310 | 9.7 | 12.9 | 0.00 | 0.30 | 0.30 | 55 | 1012.3 |
| 20260506212659 | 11 | 329 | 9.7 | 16.1 | 0.00 | 0.30 | 0.30 | 55 | 1012.1 |
| 20260506212154 | 11 | 294 | 12.9 | 17.7 | 0.00 | 0.30 | 0.30 | 53 | 1011.9 |
| 20260506211650 | 11 | 342 | 12.9 | 16.1 | 0.00 | 0.30 | 0.30 | 54 | 1012.0 |
| 20260506211146 | 11 | 302 | 9.7 | 12.9 | 0.00 | 0.30 | 0.30 | 54 | 1012.3 |
| 20260506210643 | 11 | 318 | 11.3 | 14.5 | 0.00 | 0.30 | 0.30 | 52 | 1012.0 |
| 20260506210140 | 11 | 278 | 11.3 | 16.1 | 0.00 | 0.30 | 0.30 | 52 | 1011.8 |
| 20260506205638 | 11 | 315 | 9.7 | 12.9 | 0.00 | 0.30 | 0.30 | 53 | 1011.9 |
| 20260506205132 | 11 | 307 | 9.7 | 12.9 | 0.00 | 0.30 | 0.30 | 53 | 1011.9 |
| 20260506204630 | 11 | 291 | 11.3 | 14.5 | 0.00 | 0.30 | 0.30 | 51 | 1012.0 |
| 20260506204127 | 11 | 304 | 9.7 | 14.5 | 0.00 | 0.30 | 0.30 | 52 | 1012.1 |
| 20260506203625 | 12 | 316 | 12.9 | 17.7 | 0.00 | 0.30 | 0.30 | 51 | 1012.1 |
| 20260506203121 | 11 | 301 | 11.3 | 12.9 | 0.00 | 0.30 | 0.30 | 53 | 1012.0 |
| 20260506202619 | 11 | 300 | 12.9 | 14.5 | 0.00 | 0.30 | 0.30 | 52 | 1012.1 |
| 20260506202115 | 12 | 291 | 14.5 | 16.1 | 0.00 | 0.30 | 0.30 | 51 | 1011.9 |
| 20260506201613 | 12 | 315 | 16.1 | 20.9 | 0.00 | 0.30 | 0.30 | 52 | 1012.1 |
| 20260506201109 | 12 | 325 | 12.9 | 16.1 | 0.00 | 0.30 | 0.30 | 50 | 1012.1 |
| 20260506200606 | 12 | 323 | 9.7 | 12.9 | 0.00 | 0.30 | 0.30 | 48 | 1012.1 |
| 20260506195559 | 12 | 324 | 17.7 | 22.5 | 0.00 | 0.30 | 0.30 | 49 | 1012.0 |
| 20260506195055 | 12 | 332 | 12.9 | 14.5 | 0.00 | 0.30 | 0.30 | 51 | 1012.1 |
| 20260506194553 | 12 | 326 | 16.1 | 17.7 | 0.00 | 0.30 | 0.30 | 49 | 1011.9 |
| 20260506194049 | 12 | 315 | 9.7 | 16.1 | 0.00 | 0.30 | 0.30 | 51 | 1012.2 |
| 20260506193547 | 12 | 332 | 14.5 | 20.9 | 0.00 | 0.30 | 0.30 | 55 | 1011.9 |
| 20260506193044 | 12 | 308 | 8.0 | 12.9 | 0.00 | 0.30 | 0.30 | 51 | 1012.1 |
| 20260506192541 | 12 | 309 | 17.7 | 20.9 | 0.00 | 0.30 | 0.30 | 52 | 1012.2 |
| 20260506192037 | 12 | 276 | 6.4 | 12.9 | 0.00 | 0.30 | 0.30 | 50 | 1012.1 |
| 20260506191534 | 12 | 320 | 16.1 | 17.7 | 0.00 | 0.30 | 0.30 | 52 | 1012.1 |
| 20260506191029 | 12 | 266 | 8.0 | 11.3 | 0.00 | 0.30 | 0.30 | 50 | 1011.9 |
| 20260506190527 | 12 | 320 | 6.4 | 14.5 | 0.00 | 0.30 | 0.30 | 51 | 1012.1 |
| 20260506190024 | 12 | 326 | 6.4 | 9.7 | 0.00 | 0.30 | 0.30 | 55 | 1012.1 |
| 20260506185521 | 12 | 324 | 14.5 | 14.5 | 0.00 | 0.30 | 0.30 | 51 | 1012.1 |
| 20260506185017 | 11 | 305 | 9.7 | 14.5 | 0.00 | 0.30 | 0.30 | 52 | 1011.9 |
| 20260506184515 | 11 | 299 | 9.7 | 11.3 | 0.00 | 0.30 | 0.30 | 53 | 1012.1 |
| 20260506184012 | 11 | 322 | 9.7 | 14.5 | 0.00 | 0.30 | 0.30 | 53 | 1012.1 |
| 20260506183507 | 11 | 329 | 11.3 | 14.5 | 0.00 | 0.30 | 0.30 | 53 | 1012.3 |
| 20260506183005 | 11 | 307 | 6.4 | 9.7 | 0.00 | 0.30 | 0.30 | 55 | 1012.2 |
| 20260506182501 | 11 | 304 | 11.3 | 12.9 | 0.00 | 0.30 | 0.30 | 53 | 1012.4 |
| 20260506181959 | 11 | 307 | 11.3 | 12.9 | 0.00 | 0.30 | 0.30 | 51 | 1012.0 |
| 20260506181457 | 11 | 319 | 8.0 | 9.7 | 0.00 | 0.30 | 0.30 | 53 | 1012.0 |
| 20260506180953 | 11 | 290 | 6.4 | 11.3 | 0.00 | 0.30 | 0.30 | 53 | 1011.8 |
| 20260506180450 | 11 | 313 | 9.7 | 11.3 | 0.00 | 0.30 | 0.30 | 55 | 1012.1 |
| 20260506175947 | 11 | 303 | 11.3 | 12.9 | 0.00 | 0.30 | 0.30 | 52 | 1012.0 |
| 20260506175443 | 11 | 334 | 9.7 | 16.1 | 0.00 | 0.30 | 0.30 | 53 | 1012.0 |
| 20260506174940 | 11 | 293 | 9.7 | 14.5 | 0.00 | 0.30 | 0.30 | 55 | 1012.0 |
| 20260506174438 | 11 | 316 | 8.0 | 14.5 | 0.00 | 0.30 | 0.30 | 53 | 1011.9 |
| 20260506173934 | 11 | 313 | 14.5 | 17.7 | 0.00 | 0.30 | 0.30 | 49 | 1012.3 |
| 20260506173432 | 12 | 312 | 12.9 | 17.7 | 0.00 | 0.30 | 0.30 | 50 | 1012.1 |
| 20260506172929 | 12 | 301 | 11.3 | 14.5 | 0.00 | 0.30 | 0.30 | 55 | 1012.1 |
| 20260506172426 | 12 | 330 | 9.7 | 11.3 | 0.00 | 0.30 | 0.30 | 55 | 1012.1 |
| 20260506171922 | 12 | 305 | 8.0 | 16.1 | 0.00 | 0.30 | 0.30 | 53 | 1012.0 |
| 20260506171420 | 12 | 316 | 9.7 | 22.5 | 0.00 | 0.30 | 0.30 | 52 | 1011.9 |
| 20260506170918 | 12 | 318 | 9.7 | 14.5 | 0.00 | 0.30 | 0.30 | 54 | 1011.8 |
| 20260506170414 | 12 | 340 | 8.0 | 14.5 | 0.00 | 0.30 | 0.30 | 58 | 1011.9 |
| 20260506165913 | 12 | 321 | 9.7 | 14.5 | 0.00 | 0.30 | 0.30 | 50 | 1011.9 |
| 20260506165411 | 12 | 346 | 6.4 | 11.3 | 0.00 | 0.30 | 0.30 | 54 | 1011.9 |
| 20260506164906 | 12 | 4 | 12.9 | 24.1 | 0.00 | 0.30 | 0.30 | 54 | 1012.2 |
| 20260506164403 | 12 | 353 | 9.7 | 20.9 | 0.00 | 0.30 | 0.30 | 52 | 1012.4 |
| 20260506163902 | 12 | 318 | 11.3 | 14.5 | 0.00 | 0.30 | 0.30 | 52 | 1012.1 |
| 20260506163355 | 12 | 313 | 11.3 | 24.1 | 0.00 | 0.30 | 0.30 | 51 | 1012.3 |
| 20260506162850 | 12 | 336 | 9.7 | 16.1 | 0.00 | 0.30 | 0.30 | 51 | 1012.0 |
| 20260506162349 | 11 | 339 | 14.5 | 16.1 | 0.00 | 0.30 | 0.30 | 55 | 1012.0 |
| 20260506161846 | 11 | 320 | 12.9 | 17.7 | 0.00 | 0.30 | 0.30 | 57 | 1011.7 |
| 20260506161343 | 11 | 345 | 14.5 | 16.1 | 0.00 | 0.30 | 0.30 | 57 | 1011.7 |
| 20260506160841 | 11 | 338 | 8.0 | 17.7 | 0.00 | 0.30 | 0.30 | 56 | 1011.7 |
| 20260506160337 | 12 | 2 | 11.3 | 24.1 | 0.00 | 0.30 | 0.30 | 56 | 1012.3 |
| 20260506155836 | 12 | 321 | 9.7 | 16.1 | 0.00 | 0.30 | 0.30 | 59 | 1011.8 |
| 20260506155332 | 11 | 308 | 6.4 | 12.9 | 0.00 | 0.30 | 0.30 | 64 | 1011.9 |
| 20260506153444 | 11 | 23 | 9.7 | 12.9 | 0.00 | 0.30 | 0.30 | 61 | 1011.9 |
| 20260506152942 | 11 | 306 | 11.3 | 17.7 | 0.00 | 0.30 | 0.30 | 62 | 1011.9 |
| 20260506152439 | 11 | 320 | 8.0 | 12.9 | 0.00 | 0.30 | 0.30 | 62 | 1011.9 |
| 20260506151937 | 11 | 326 | 16.1 | 22.5 | 0.00 | 0.30 | 0.30 | 64 | 1011.6 |
| 20260506151434 | 11 | 18 | 8.0 | 12.9 | 0.00 | 0.30 | 0.30 | 67 | 1011.5 |
| 20260506150932 | 11 | 330 | 14.5 | 20.9 | 0.00 | 0.30 | 0.30 | 66 | 1011.8 |
| 20260506150427 | 11 | 338 | 9.7 | 12.9 | 0.00 | 0.30 | 0.30 | 64 | 1011.4 |
| 20260506145925 | 11 | 332 | 12.9 | 22.5 | 0.00 | 0.30 | 0.30 | 66 | 1011.5 |
| 20260506145421 | 10 | 17 | 3.2 | 11.3 | 0.00 | 0.30 | 0.30 | 64 | 1011.4 |
| 20260506144919 | 10 | 16 | 9.7 | 14.5 | 0.00 | 0.30 | 0.30 | 66 | 1011.3 |
| 20260506144415 | 10 | 25 | 11.3 | 16.1 | 0.00 | 0.30 | 0.30 | 68 | 1011.0 |
| 20260506143914 | 10 | 332 | 11.3 | 12.9 | 0.00 | 0.30 | 0.30 | 69 | 1011.1 |
| 20260506143410 | 10 | 322 | 9.7 | 12.9 | 0.00 | 0.30 | 0.30 | 70 | 1011.3 |
| 20260506142908 | 10 | 331 | 9.7 | 14.5 | 0.00 | 0.30 | 0.30 | 70 | 1011.3 |
| 20260506142406 | 10 | 338 | 9.7 | 17.7 | 0.00 | 0.30 | 0.30 | 72 | 1011.1 |
| 20260506141904 | 10 | 10 | 16.1 | 20.9 | 0.00 | 0.30 | 0.30 | 71 | 1011.2 |
| 20260506141402 | 9 | 327 | 11.3 | 20.9 | 0.00 | 0.30 | 0.30 | 73 | 1011.1 |
| 20260506140900 | 10 | 335 | 14.5 | 16.1 | 0.00 | 0.30 | 0.30 | 73 | 1011.2 |
| 20260506140356 | 9 | 303 | 9.7 | 12.9 | 0.00 | 0.30 | 0.30 | 78 | 1011.3 |
| 20260506135853 | 9 | 318 | 14.5 | 16.1 | 0.00 | 0.30 | 0.30 | 74 | 1011.4 |
| 20260506135350 | 9 | 306 | 11.3 | 20.9 | 0.00 | 0.30 | 0.30 | 75 | 1011.1 |
| 20260506134846 | 9 | 333 | 14.5 | 16.1 | 0.00 | 0.30 | 0.30 | 76 | 1010.8 |
| 20260506134343 | 8 | 315 | 9.7 | 12.9 | 0.00 | 0.30 | 0.30 | 80 | 1010.8 |
| 20260506133840 | 8 | 324 | 14.5 | 20.9 | 0.00 | 0.30 | 0.30 | 80 | 1010.7 |
| 20260506133336 | 8 | 321 | 11.3 | 17.7 | 0.00 | 0.30 | 0.30 | 80 | 1010.8 |
| 20260506132833 | 8 | 305 | 9.7 | 16.1 | 0.00 | 0.30 | 0.30 | 81 | 1010.6 |
| 20260506132330 | 8 | 321 | 11.3 | 12.9 | 0.00 | 0.30 | 0.30 | 80 | 1010.8 |
| 20260506131828 | 8 | 321 | 9.7 | 14.5 | 0.00 | 0.30 | 0.30 | 82 | 1010.7 |
| 20260506131324 | 8 | 319 | 9.7 | 12.9 | 0.00 | 0.30 | 0.30 | 82 | 1010.6 |
| 20260506130822 | 8 | 298 | 12.9 | 14.5 | 0.00 | 0.30 | 0.30 | 81 | 1010.9 |
| 20260506130318 | 8 | 311 | 9.7 | 12.9 | 0.00 | 0.30 | 0.30 | 81 | 1010.7 |
| 20260506125816 | 7 | 318 | 6.4 | 12.9 | 0.00 | 0.30 | 0.30 | 84 | 1010.8 |
| 20260506125314 | 7 | 302 | 9.7 | 14.5 | 0.00 | 0.30 | 0.30 | 82 | 1010.6 |
| 20260506124813 | 7 | 316 | 14.5 | 16.1 | 0.00 | 0.30 | 0.30 | 82 | 1010.7 |
| 20260506124309 | 7 | 323 | 6.4 | 9.7 | 0.00 | 0.30 | 0.30 | 87 | 1010.6 |
| 20260506123807 | 7 | 333 | 9.7 | 12.9 | 0.00 | 0.30 | 0.30 | 87 | 1010.4 |
| 20260506123305 | 7 | 313 | 8.0 | 9.7 | 0.00 | 0.30 | 0.30 | 88 | 1010.3 |
| 20260506122801 | 7 | 289 | 8.0 | 9.7 | 0.00 | 0.30 | 0.30 | 90 | 1010.5 |
| 20260506122259 | 7 | 320 | 9.7 | 12.9 | 0.00 | 0.30 | 0.30 | 90 | 1010.2 |
| 20260506121757 | 7 | 318 | 9.7 | 11.3 | 0.00 | 0.30 | 0.30 | 90 | 1010.0 |
| 20260506121253 | 7 | 325 | 8.0 | 9.7 | 0.00 | 0.30 | 0.30 | 91 | 1010.0 |
| 20260506120751 | 6 | 334 | 6.4 | 9.7 | 0.00 | 0.30 | 0.30 | 91 | 1010.0 |
| 20260506120248 | 6 | 322 | 6.4 | 9.7 | 0.00 | 0.30 | 0.30 | 91 | 1009.8 |
| 20260506115746 | 6 | 330 | 8.0 | 12.9 | 0.00 | 0.30 | 0.30 | 91 | 1009.8 |
| 20260506115244 | 6 | 307 | 8.0 | 11.3 | 0.00 | 0.30 | 0.30 | 92 | 1010.1 |
| 20260506114741 | 6 | 323 | 6.4 | 6.4 | 0.00 | 0.30 | 0.30 | 93 | 1009.8 |
| 20260506114239 | 6 | 336 | 8.0 | 9.7 | 0.00 | 0.30 | 0.30 | 93 | 1009.7 |
| 20260506113737 | 6 | 336 | 8.0 | 9.7 | 0.00 | 0.30 | 0.30 | 93 | 1009.5 |
| 20260506113234 | 6 | 341 | 8.0 | 9.7 | 0.00 | 0.30 | 0.30 | 93 | 1009.2 |
| 20260506112730 | 6 | 338 | 6.4 | 9.7 | 0.00 | 0.30 | 0.30 | 94 | 1009.2 |
| 20260506112228 | 6 | 338 | 3.2 | 6.4 | 0.00 | 0.30 | 0.30 | 94 | 1009.3 |
| 20260506111725 | 6 | 340 | 4.8 | 6.4 | 0.00 | 0.30 | 0.30 | 94 | 1009.1 |
| 20260506111224 | 6 | 331 | 6.4 | 6.4 | 0.00 | 0.30 | 0.30 | 94 | 1008.9 |
| 20260506110721 | 6 | 335 | 6.4 | 9.7 | 0.00 | 0.30 | 0.30 | 94 | 1008.9 |
| 20260506110218 | 6 | 333 | 8.0 | 9.7 | 0.00 | 0.30 | 0.30 | 94 | 1008.9 |
| 20260506105714 | 6 | 334 | 6.4 | 6.4 | 0.00 | 0.30 | 0.30 | 95 | 1008.9 |
| 20260506105211 | 6 | 330 | 3.2 | 4.8 | 0.00 | 0.30 | 0.30 | 95 | 1008.7 |
| 20260506104710 | 6 | 343 | 6.4 | 6.4 | 0.00 | 0.30 | 0.30 | 95 | 1008.7 |
| 20260506104207 | 6 | 8 | 3.2 | 6.4 | 0.00 | 0.30 | 0.30 | 95 | 1008.6 |
| 20260506103703 | 6 | 350 | 3.2 | 4.8 | 0.00 | 0.30 | 0.30 | 95 | 1008.2 |
| 20260506103200 | 6 | 339 | 3.2 | 4.8 | 0.00 | 0.30 | 0.30 | 95 | 1008.8 |
| 20260506102659 | 6 | 2 | 1.6 | 3.2 | 0.00 | 0.30 | 0.30 | 95 | 1008.5 |
| 20260506102156 | 6 | 323 | 1.6 | 3.2 | 0.00 | 0.30 | 0.30 | 95 | 1008.7 |
| 20260506101652 | 6 | 327 | 3.2 | 3.2 | 0.00 | 0.30 | 0.30 | 95 | 1008.6 |
| 20260506101149 | 6 | 341 | 3.2 | 4.8 | 0.00 | 0.30 | 0.30 | 95 | 1008.3 |
| 20260506100648 | 6 | 340 | 4.8 | 4.8 | 0.00 | 0.30 | 0.30 | 95 | 1008.5 |
| 20260506100145 | 6 | 353 | 3.2 | 6.4 | 0.00 | 0.30 | 0.30 | 95 | 1008.2 |
| 20260506095644 | 6 | 333 | 6.4 | 6.4 | 0.00 | 0.30 | 0.30 | 95 | 1008.5 |
| 20260506095140 | 6 | 334 | 6.4 | 6.4 | 0.00 | 0.30 | 0.30 | 95 | 1008.6 |
| 20260506094638 | 6 | 329 | 4.8 | 4.8 | 0.00 | 0.30 | 0.30 | 95 | 1008.3 |
| 20260506094135 | 6 | 354 | 3.2 | 4.8 | 0.00 | 0.30 | 0.30 | 95 | 1008.2 |
| 20260506093634 | 6 | 346 | 4.8 | 6.4 | 0.00 | 0.30 | 0.30 | 95 | 1008.0 |
| 20260506093130 | 6 | 22 | 3.2 | 6.4 | 0.00 | 0.30 | 0.30 | 95 | 1008.0 |
| 20260506092628 | 6 | 355 | 8.0 | 11.3 | 0.00 | 0.30 | 0.30 | 95 | 1007.9 |
| 20260506092125 | 6 | 342 | 3.2 | 11.3 | 0.00 | 0.30 | 0.30 | 95 | 1008.0 |
| 20260506091623 | 6 | 343 | 8.0 | 9.7 | 0.00 | 0.30 | 0.30 | 96 | 1008.0 |
| 20260506091120 | 6 | 32 | 6.4 | 9.7 | 0.00 | 0.30 | 0.30 | 96 | 1007.8 |